Regional Weather Roundup
Issued by NWS

Home | Current Version | Previous Version | Graphics & Text | Print | Product List | Glossary On
Versions: 1 2 3 4 5 6 7 8 9 10 11 12 13 14 15 16 17 18 19 20 21 22 23 24 25 26 27 28 29 30 31 32 33 34 35 36 37 38 39 40 41 42 43 44 45 46 47 48 49 50
000
ASUS45 KBOU 251207
RWRCO

WEATHER ROUNDUP FOR COLORADO
NATIONAL WEATHER SERVICE DENVER/BOULDER CO
600 AM MDT SAT APR 25 2015

NOTE: "FAIR" INDICATES FEW OR NO CLOUDS BELOW 12000 FEET WITH NO
SIGNIFICANT WEATHER AND/OR OBSTRUCTIONS TO VISIBILITY.

COZ001>005-013-030-031-251300-
...NORTHWEST COLORADO...

CITY           SKY/WX    TMP DP  RH WIND       PRES   REMARKS
CRAIG          CLOUDY    44  36  73 SW7       29.82R
HAYDEN         CLOUDY    43  32  65 NW5       29.83R
MEEKER         LGT RAIN  44  36  73 W5        29.82R
MOUNT WERNER   NOT AVBL
STEAMBOAT SPGS CLOUDY    38  32  79 CALM      29.83R
WALDEN         PTCLDY    34  28  80 S7        29.84S WCI  28
$$

COZ006>008-011-251300-
...WEST CENTRAL VALLEYS...

CITY           SKY/WX    TMP DP  RH WIND       PRES   REMARKS
GRAND JUNCTION CLOUDY    48  34  58 E9        29.79S
MONTROSE       CLOUDY    47  34  60 SE8       29.86S
EAGLE          CLOUDY    32  28  86 CALM      29.88R
RIFLE          CLOUDY    40  34  79 NE6       29.83R
DELTA          CLOUDY    45  33  61 MISG      29.84S
NUCLA          CLOUDY    46  34  61 S12G17    29.90R
$$

COZ017>023-064>068-251300-
...SOUTHWEST COLORADO...

CITY           SKY/WX    TMP DP  RH WIND       PRES   REMARKS
DURANGO        CLOUDY    38  36  92 NE5       29.95S
CORTEZ         LGT RAIN  46  40  79 SW7       29.93R
PAGOSA SPRINGS CLOUDY    36  35  96 CALM      29.98R
TELLURIDE      CLOUDY    34  30  85 S5        29.97R WCI  30
WOLF CREEK PAS NOT AVBL
$$

COZ009-010-012-014-032>034-037-058>063-251300-
...CENTRAL COLORADO...

CITY           SKY/WX    TMP DP  RH WIND       PRES   REMARKS
ASPEN          MOCLDY    34  24  67 S3        29.86S
BUENA VISTA    PTCLDY    32  23  70 S5        29.89R WCI  27
COPPER MTN     PTCLDY    28  18  64 SW12      29.98R WCI  18
BERTHOUD PASS  FAIR      21  12  68 W28G37    29.96F WCI   3
COTTONWOOD PAS PTCLDY    37  21  52 W12G25    29.92S
GUNNISON       MOCLDY    30  25  80 NW6       29.96S WCI  24
KREMMLING      PTCLDY    30  27  86 CALM      29.88R
LEADVILLE      PTCLDY    20  16  84 NE8       29.91S WCI  10
MONARCH PASS   CLOUDY    23  21  93 MISG      30.10R
SALIDA         PTCLDY    41  24  51 SW8       29.96R
SUNLIGHT       LGT SNOW  32  28  86 CALM      29.96F
WILKERSON PASS MOCLDY    27  18  69 W12G18    29.96S WCI  16
$$

COZ069>075-251300-
...SAN LUIS VALLEY/SANGRE DE CRISTO MOUNTAINS...

CITY           SKY/WX    TMP DP  RH WIND       PRES   REMARKS
ALAMOSA        PTCLDY    25  22  88 E5        29.93R WCI  19
LA VETA PASS   PTCLDY    27  25  93 S9        29.96R WCI  17
SAGUACHE       PTCLDY    25  21  86 N5        29.95S WCI  19
$$

COZ035-036-038>040-251300-
...NORTHERN COLORADO FRONT RANGE...

CITY           SKY/WX    TMP DP  RH WIND       PRES   REMARKS
DENVER INTL AP PTCLDY    42  26  53 S9        29.73R
DMNS CITY PARK   N/A     42  27  53 S3        29.73S
AURORA         NOT AVBL
FRONT RANGE AP NOT AVBL
ERIE MUNI ARPT CLEAR     33  31  92 CALM      29.73R
BOULDER MUN AP CLEAR     39  32  75 CALM      29.72R
CENTENNIAL     PTCLDY    40  26  57 CALM      29.75S
BROOMFIELD     CLEAR     50  27  40 W10       29.74R
FORT COLLINS   CLEAR     41  32  70 SE5       29.73S
LONGMONT       CLEAR     38  31  78 CALM      29.73S
$$

COZ041-046-047-076>085-087-088-251300-
...PIKES PEAK/PALMER DIVIDE AND SOUTHERN FOOTHILLS...

CITY           SKY/WX    TMP DP  RH WIND       PRES   REMARKS
COLO. SPRINGS  PTCLDY    45  22  40 W3        29.78S
A. F. ACADEMY  NOT AVBL
ELLICOTT       CLEAR    N/A N/A N/A NE7       29.77S
FALCON         CLEAR     40  21  46 W8        29.81R
FORT CARSON    CLEAR     36  27  70 NW9       29.75F
LIMON          CLEAR     36  29  75 NW6       29.76R
MONUMENT HILL  CLEAR     39  21  48 SW9       29.79S
TRINIDAD       CLEAR     40  24  53 W18       29.80R
$$

COZ042>045-048>051-090-091-251300-
...NORTHEAST COLORADO...

CITY           SKY/WX    TMP DP  RH WIND       PRES   REMARKS
GREELEY ARPT   CLEAR     39  30  70 W7        29.73R
AKRON          CLEAR     39  35  86 W12       29.70R
BURLINGTON     CLEAR     42  36  79 W12       29.69R
WRAY           CLEAR     43  40  90 W7        29.66R
STERLING       CLEAR     41  36  81 NE5       29.68S
HOLYOKE        CLEAR     46  41  81 NW10      29.66R
FORT MORGAN    CLEAR     39  33  78 W5        29.72S
$$

COZ086-089-092>099-251300-
...SOUTHEAST COLORADO...

CITY           SKY/WX    TMP DP  RH WIND       PRES   REMARKS
PUEBLO         CLEAR     37  31  78 E5        29.73F
LA JUNTA       CLEAR     43  29  57 W12       29.73S
LAMAR          CLEAR     44  37  76 SW12      29.70R
SPRINGFIELD      N/A     46  27  47 W15       29.73R
$$



USA.gov is the U.S. government's official web portal to all federal, state and local government web resources and services.